This demonstration page uses our WeatherBlox Daily Observations layout. Learn more.

Left ArrowRight Arrow

39.08367, -84.50855

Hourly Observations for August 7, 2017

Temp ( °F °C ) Dew Point ( °F °C ) Humidity (%) Winds ( mph kmh ) Pressure ( in mb ) Visibility ( mi km ) Precip ( " mm )
12:53 am 00:53 Mostly Cloudy with Light Rain 65 18.3 65 18.3 100 100 NE 3 6 30.04 1017 7 11.26538 0.01 0.254
1:53 am 01:53 Cloudy with Light Rain 65 18.3 65 18.3 100 100 N N/A 30.01 1016 7 11.26538 0.06 1.524
2:24 am 02:24 Cloudy with Light Rain 65 18.3 65 18.3 100 100 N N/A 29.97 1015 6 9.65604 0.04 1.016
2:53 am 02:53 Cloudy with Light Rain 65 18.3 65 18.3 100 100 NNE 5 7 29.98 1015 6 9.65604 0.06 1.524
3:26 am 03:26 Cloudy with Light Rain 65 18.3 65 18.3 100 100 NE 3 6 29.97 1015 7 11.26538 0.02 0.508
3:53 am 03:53 undefined 65 18.3 65 18.3 100 100 NNE 5 7 29.97 1015 N/A 0.03 0.762
4:21 am 04:21 Cloudy with Light Rain 65 18.3 65 18.3 100 100 NNE 5 7 29.94 1014 9 14.48406 N/A
4:53 am 04:53 Cloudy with Light Rain 65 18.3 65 18.3 100 100 N N/A 29.96 1015 9 14.48406 N/A
5:22 am 05:22 Cloudy with Heavy Rain 65 18.3 65 18.3 100 100 NNE 3 6 29.94 1014 2.5 4.02335 0.03 0.762
5:35 am 05:35 Cloudy with Light Rain 65 18.3 65 18.3 100 100 NNE 5 7 29.94 1014 3 4.82802 0.05 1.27
5:48 am 05:48 Cloudy with Light Rain 64 18 64 18 100 100 NE 3 6 29.94 1014 4 6.43736 0.05 1.27
5:53 am 05:53 Cloudy with Light Rain 65 18.3 65 18.3 100 100 NE 3 6 29.96 1015 4 6.43736 0.05 1.27
6:02 am 06:02 Cloudy with Light Rain 65 18.3 65 18.3 100 100 NE 3 6 29.94 1014 5 8.0467 N/A
6:20 am 06:20 Cloudy with Rain 65 18.3 65 18.3 100 100 NE 5 7 29.94 1014 2.5 4.02335 0.03 0.762
6:28 am 06:28 Cloudy with Light Rain 65 18.3 65 18.3 100 100 NE 3 6 29.94 1014 4 6.43736 0.03 0.762
6:53 am 06:53 Cloudy with Light Rain 65 18.3 65 18.3 100 100 NE 5 7 29.96 1015 4 6.43736 0.05 1.27
7:13 am 07:13 Cloudy with Light Rain 65 18.3 65 18.3 100 100 NE 5 7 29.94 1014 5 8.0467 N/A
7:22 am 07:22 Cloudy with Light Rain 65 18.3 65 18.3 100 100 NNE 5 7 29.94 1014 2.5 4.02335 0.01 0.254
7:53 am 07:53 Cloudy with Light Rain 65 18.3 65 18.3 100 100 NNE 5 7 29.96 1015 2.5 4.02335 0.02 0.508
8:53 am 08:53 Cloudy with Mist and Fog 66 18.9 66 18.9 100 100 NE 5 7 29.97 1015 5 8.0467 0.01 0.254
9:53 am 09:53 Cloudy with Light Rain 66 18.9 65 18.3 96 96 NNE 6 9 29.99 1016 9 14.48406 N/A
10:31 am 10:31 Cloudy with Light Rain 66 18.9 66 18.9 100 100 NE 5 7 29.97 1015 2.5 4.02335 0.02 0.508
10:53 am 10:53 Cloudy with Light Rain 66 18.9 66 18.9 100 100 ENE 6 9 29.98 1015 2.5 4.02335 0.04 1.016
11:18 am 11:18 Cloudy with Light Rain 67 19.4 66 18.9 97 97 NE 6 9 29.97 1015 2.5 4.02335 N/A
11:36 am 11:36 Cloudy with Light Rain 67 19.4 66 18.9 97 97 NE 7 11 29.97 1015 2 3.21868 0.01 0.254
11:53 am 11:53 Cloudy with Light Rain 67 19.4 67 19.4 100 100 NE 5 7 29.98 1015 2 3.21868 0.02 0.508
12:09 pm 12:09 Cloudy with Mist and Fog 70 21.1 68 20 93 93 NE 8 13 29.97 1015 6 9.65604 N/A
12:53 pm 12:53 Cloudy 71 21.7 68 20 90 90 ENE 6 9 29.98 1015 10 16.0934 N/A
1:53 pm 13:53 Cloudy 71 21.7 67 19.4 87 87 NNE 7 11 29.99 1016 10 16.0934 N/A
2:06 pm 14:06 Cloudy 71 21.7 67 19.4 87 87 NE 6 9 29.97 1015 10 16.0934 N/A
2:53 pm 14:53 Cloudy 70 21.1 67 19.4 90 90 NE 7 11 29.99 1016 10 16.0934 N/A
3:53 pm 15:53 Mostly Cloudy 73 22.8 67 19.4 81 81 ENE 6 9 29.98 1015 10 16.0934 N/A
4:53 pm 16:53 Mostly Cloudy 73 22.8 66 18.9 79 79 NE 5 7 29.98 1015 10 16.0934 N/A
5:53 pm 17:53 Partly Cloudy 75 23.9 67 19.4 76 76 N N/A 29.98 1015 10 16.0934 N/A
6:53 pm 18:53 Mostly Cloudy 75 23.9 63 17.2 66 66 ENE 6 9 29.97 1015 10 16.0934 N/A
7:53 pm 19:53 Partly Cloudy 74 23.3 65 18.3 74 74 N N/A 29.98 1015 10 16.0934 N/A
8:53 pm 20:53 Cloudy 70 21.1 68 20 93 93 N N/A 30 1016 10 16.0934 N/A
9:53 pm 21:53 Clear 65 18.3 65 18.3 100 100 N N/A 30.02 1017 10 16.0934 N/A
10:53 pm 22:53 Clear 65 18.3 64 17.8 97 97 N N/A 30.04 1017 10 16.0934 N/A
11:53 pm 23:53 Clear 65 18.3 65 18.3 100 100 N N/A 30.05 1018 10 16.0934 N/A

Powered by AerisWeather